This is the latest recevied weather packets stored in our database for station/object WB4ROX. If no packets are shown the sender has not sent any weather packets the latest 10 day(s).
| Time | Temp. | Humidity | Pressure | Rain* | Wind** | Luminosity | Snow |
|---|---|---|---|---|---|---|---|
| 1777508498 | 11.67° C | 94% | 1014.6 hPa | 13.21 mm | - | 0 W/m² | - |
| 1777508196 | 11.67° C | 93% | 1014.5 hPa | 13.72 mm | - | 0 W/m² | - |
| 1777507892 | 12.22° C | 93% | 1014.1 hPa | 1.78 mm | - | 0 W/m² | - |
| 1777507589 | 12.78° C | 91% | 1014.4 hPa | 0 mm | - | 2 W/m² | - |
| 1777507286 | 12.78° C | 90% | 1014.3 hPa | 0 mm | - | 4 W/m² | - |
| 1777506984 | 12.78° C | 91% | 1014.1 hPa | 0 mm | - | 4 W/m² | - |
| 1777506681 | 12.78° C | 90% | 1013.9 hPa | 0 mm | - | 8 W/m² | - |
| 1777506377 | 12.78° C | 90% | 1013.8 hPa | 0 mm | - | 10 W/m² | - |
| 1777506073 | 12.78° C | 90% | 1013.8 hPa | 0 mm | - | 16 W/m² | - |
| 1777505769 | 12.78° C | 89% | 1013.8 hPa | 0 mm | - | 14 W/m² | - |
| 1777505466 | 12.78° C | 88% | 1013.9 hPa | 0 mm | - | 9 W/m² | - |
| 1777505162 | 12.78° C | 87% | 1013.9 hPa | 0 mm | - | 8 W/m² | - |
| 1777504859 | 13.33° C | 87% | 1014.1 hPa | 0 mm | - | 12 W/m² | - |
| 1777504556 | 13.33° C | 86% | 1014.1 hPa | 0 mm | - | 23 W/m² | - |
| 1777504252 | 13.33° C | 86% | 1013.9 hPa | 0 mm | - | 39 W/m² | - |
| 1777503948 | 13.33° C | 85% | 1014 hPa | 0 mm | - | 61 W/m² | - |
| 1777503644 | 13.33° C | 84% | 1013.9 hPa | 0 mm | - | 53 W/m² | - |
| 1777503341 | 13.33° C | 84% | 1014.5 hPa | 0 mm | - | 36 W/m² | - |
| 1777503037 | 13.33° C | 86% | 1014 hPa | 0 mm | - | 74 W/m² | - |
| 1777502735 | 13.33° C | 87% | 1014.4 hPa | 0 mm | - | 58 W/m² | - |
| 1777502432 | 13.33° C | 87% | 1014.3 hPa | 0 mm | - | 51 W/m² | - |
| 1777502129 | 13.33° C | 87% | 1014.3 hPa | 0 mm | - | 131 W/m² | - |
| 1777501827 | 13.33° C | 87% | 1014.4 hPa | 0 mm | - | 95 W/m² | - |
| 1777501523 | 13.33° C | 88% | 1014.3 hPa | 0 mm | - | 81 W/m² | - |
| 1777501220 | 13.33° C | 87% | 1014 hPa | 0 mm | - | 41 W/m² | - |
* Rain latest hour (hover to see other rain measurements)
** Current wind speed in m/s (hover to see current wind gust speed)